Home   Weather   45°23'N, 122°44'W   Past weeks
Flag for USA

Past Weather in 45°23'N, 122°44'W, USA — Yesterday and Last 2 Weeks

Now
63 °F

Overcast.


Feels Like: 63 °F
Forecast: 75 / 57 °F
Wind: 5 mph from Northwest

Location: Portland International Airport

Current Time: Aug 25, 2019 at 3:39:22 am

Latest Report: Aug 25, 2019 at 2:53 am


Visibility: 10 mi

Pressure: 30.07 "Hg

Humidity: 73%

Dew Point: 54 °F

Location of 45°23'N, 122°44'WLocation

Past Weather in 45°23'N, 122°44'W — Graph

°F

45°23'N, 122°44'W Temperature Yesterday

Maximum temperature yesterday: 82 °F (at 4:53 pm)
Minimum temperature yesterday: 61 °F (at 6:53 am)
Average temperature yesterday: 70 °F

High & Low Weather Summary for the Past Weeks

 TemperatureHumidityPressure
High89 °F (Aug 13, 4:53 pm)90% (Aug 10, 3:58 am)30.24 "Hg (Aug 10, 3:58 am)
Low56 °F (Aug 22, 4:53 am)28% (Aug 13, 6:53 pm)29.83 "Hg (Aug 18, 5:53 pm)
Average69 °F64%30.02 "Hg
* Reported Aug 10 1:57 am — Aug 25 1:53 am, 45°23'N, 122°44'W. Weather by CustomWeather, © 2019

Note: Actual official high and low records may vary slightly from our data, if they occured in-between our weather recording intervals... More about our weather records

Advertising

45°23'N, 122°44'W Weather History for the Previous 24 Hours

Scroll right to see more
 ConditionsComfort  
Time TempWeatherWind HumidityBarometerVisibility
1:53 am
Sun, Aug 25
64 °FOvercast.12 mph70%30.06 "Hg10 mi
12:53 am65 °FOvercast.12 mph68%30.05 "Hg10 mi
11:53 pm
Sat, Aug 24
65 °FPassing clouds.12 mph68%30.03 "Hg10 mi
10:53 pm66 °FPassing clouds.10 mph65%30.02 "Hg10 mi
9:53 pm67 °FPassing clouds.12 mph63%30.03 "Hg10 mi
8:53 pm69 °FPassing clouds.9 mph59%30.01 "Hg10 mi
7:53 pm72 °FPassing clouds.8 mph59%29.99 "Hg10 mi
6:53 pm75 °FPassing clouds.9 mph55%29.98 "Hg10 mi
5:53 pm79 °FPassing clouds.12 mph48%29.97 "Hg10 mi
4:53 pm82 °FPassing clouds.12 mph41%29.97 "Hg10 mi
3:53 pm80 °FPassing clouds.6 mph39%29.97 "Hg10 mi
2:53 pm80 °FScattered clouds.8 mph39%29.98 "Hg10 mi
1:53 pm78 °FBroken clouds.6 mph40%29.99 "Hg10 mi
12:53 pm76 °FBroken clouds.6 mph36%30.00 "Hg10 mi
11:53 am73 °FPartly sunny.5 mph36%30.00 "Hg10 mi
10:53 am70 °FPartly sunny.3 mph42%30.01 "Hg10 mi
9:53 am67 °FPartly sunny.No wind51%30.00 "Hg10 mi
8:53 am64 °FPartly sunny.3 mph52%29.99 "Hg10 mi
7:53 am63 °FPartly sunny.No wind56%29.98 "Hg10 mi
6:53 am61 °FPassing clouds.No wind56%29.96 "Hg10 mi
5:53 am62 °FPassing clouds.5 mph50%29.95 "Hg10 mi
4:53 am63 °FOvercast.5 mph50%29.94 "Hg10 mi
3:53 am63 °FPassing clouds.8 mph54%29.93 "Hg10 mi
Weather by CustomWeather, © 2019

See weather overview